Year,Month,Day,Hour,Minute,Value (Times are PST for temperature in C)
2008,04,12,00,00,7.40
2008,04,12,00,01,7.40
2008,04,12,00,02,7.40
2008,04,12,00,03,7.30
2008,04,12,00,04,7.20
2008,04,12,00,05,7.20
2008,04,12,00,06,7.20
2008,04,12,00,07,7.20
2008,04,12,00,08,7.10
2008,04,12,00,09,7.10
2008,04,12,00,10,7.00
2008,04,12,00,11,7.00
2008,04,12,00,12,7.00
2008,04,12,01,02,6.80
2008,04,12,01,03,6.80
2008,04,12,01,04,6.80
2008,04,12,01,05,6.90
2008,04,12,01,06,6.90
2008,04,12,01,07,7.00
2008,04,12,01,08,7.00
2008,04,12,01,09,7.00
2008,04,12,01,10,7.10
2008,04,12,01,11,7.10
2008,04,12,01,12,7.20
2008,04,12,01,13,7.10
2008,04,12,01,14,7.00
2008,04,12,01,15,7.00
2008,04,12,01,16,6.90
2008,04,12,01,17,6.90
2008,04,12,01,18,6.90
2008,04,12,01,19,6.90
2008,04,12,01,20,6.90
2008,04,12,01,21,6.90
2008,04,12,01,22,6.90
2008,04,12,01,23,6.90
2008,04,12,01,24,6.90
2008,04,12,01,25,6.90
2008,04,12,01,26,6.90
2008,04,12,01,27,6.90
2008,04,12,01,28,6.90
2008,04,12,01,29,6.90
2008,04,12,01,30,6.80
2008,04,12,01,31,6.80
2008,04,12,01,32,6.90
2008,04,12,01,33,6.90
2008,04,12,01,34,6.90
2008,04,12,01,35,6.90
2008,04,12,01,36,6.90
2008,04,12,01,37,6.80
2008,04,12,01,38,6.80
2008,04,12,01,39,6.80
2008,04,12,01,40,6.80
2008,04,12,01,41,6.80
2008,04,12,01,42,6.80
2008,04,12,01,43,6.80
2008,04,12,01,44,6.80
2008,04,12,01,45,6.70
2008,04,12,01,46,6.70
2008,04,12,01,47,6.70
2008,04,12,01,48,6.70
2008,04,12,01,49,6.60
2008,04,12,01,50,6.70
2008,04,12,01,51,6.70
2008,04,12,01,52,6.70
2008,04,12,01,53,6.70
2008,04,12,01,54,6.70
2008,04,12,01,55,6.70
2008,04,12,01,56,6.70
2008,04,12,01,57,6.60
2008,04,12,01,58,6.60
2008,04,12,01,59,6.60
2008,04,12,02,00,6.60
2008,04,12,02,01,6.60
2008,04,12,02,02,6.60
2008,04,12,02,03,6.60
2008,04,12,02,04,6.60
2008,04,12,02,05,6.60
2008,04,12,02,06,6.60
2008,04,12,02,07,6.50
2008,04,12,02,08,6.50
2008,04,12,02,09,6.50
2008,04,12,02,10,6.40
2008,04,12,02,11,6.40
2008,04,12,02,12,6.40
2008,04,12,02,13,6.40
2008,04,12,02,14,6.30
2008,04,12,02,15,6.30
2008,04,12,02,16,6.30
2008,04,12,02,17,6.30
2008,04,12,02,18,6.30
2008,04,12,02,19,6.30
2008,04,12,02,20,6.40
2008,04,12,02,21,6.40
2008,04,12,02,22,6.30
2008,04,12,02,23,6.30
2008,04,12,02,24,6.30
2008,04,12,02,25,6.30
2008,04,12,02,26,6.20
2008,04,12,02,27,6.30
2008,04,12,02,28,6.30
2008,04,12,02,29,6.40
2008,04,12,02,30,6.40
2008,04,12,02,31,6.40
2008,04,12,02,32,6.40
2008,04,12,02,33,6.40
2008,04,12,02,34,6.40
2008,04,12,02,35,6.40
2008,04,12,02,36,6.40
2008,04,12,02,37,6.40
2008,04,12,02,38,6.40
2008,04,12,02,39,6.40
2008,04,12,02,40,6.40
2008,04,12,02,41,6.50
2008,04,12,02,42,6.50
2008,04,12,02,43,6.60
2008,04,12,02,44,6.60
2008,04,12,02,45,6.70
2008,04,12,02,46,6.70
2008,04,12,02,47,6.70
2008,04,12,02,48,6.70
2008,04,12,02,49,6.70
2008,04,12,02,50,6.70
2008,04,12,02,51,6.70
2008,04,12,02,52,6.70
2008,04,12,02,53,6.60
2008,04,12,02,54,6.60
2008,04,12,02,55,6.60
2008,04,12,02,56,6.50
2008,04,12,02,57,6.50
2008,04,12,02,58,6.40
2008,04,12,02,59,6.40
2008,04,12,03,00,6.40
2008,04,12,03,01,6.40
2008,04,12,03,02,6.30
2008,04,12,03,03,6.30
2008,04,12,03,04,6.40
2008,04,12,03,05,6.50
2008,04,12,03,06,6.60
2008,04,12,03,07,6.60
2008,04,12,03,08,6.60
2008,04,12,03,09,6.50
2008,04,12,03,10,6.50
2008,04,12,03,11,6.40
2008,04,12,03,12,6.40
2008,04,12,03,13,6.40
2008,04,12,03,14,6.40
2008,04,12,03,15,6.40
2008,04,12,03,16,6.40
2008,04,12,03,17,6.40
2008,04,12,03,18,6.40
2008,04,12,03,19,6.40
2008,04,12,03,20,6.40
2008,04,12,03,21,6.40
2008,04,12,03,22,6.40
2008,04,12,03,23,6.30
2008,04,12,03,24,6.40
2008,04,12,03,25,6.40
2008,04,12,03,26,6.40
2008,04,12,03,27,6.40
2008,04,12,03,28,6.40
2008,04,12,03,29,6.40
2008,04,12,03,30,6.40
2008,04,12,03,31,6.40
2008,04,12,03,32,6.40
2008,04,12,03,33,6.40
2008,04,12,03,34,6.40
2008,04,12,03,35,6.50
2008,04,12,03,36,6.50
2008,04,12,03,37,6.60
2008,04,12,03,38,6.60
2008,04,12,03,39,6.60
2008,04,12,03,40,6.60
2008,04,12,03,41,6.70
2008,04,12,03,42,6.70
2008,04,12,03,43,6.60
2008,04,12,03,44,6.60
2008,04,12,03,45,6.50
2008,04,12,03,46,6.40
2008,04,12,03,47,6.30
2008,04,12,03,48,6.30
2008,04,12,03,49,6.20
2008,04,12,03,50,6.10
2008,04,12,03,51,6.10
2008,04,12,03,52,6.00
2008,04,12,03,53,5.90
2008,04,12,03,54,5.90
2008,04,12,03,55,5.90
2008,04,12,03,56,5.90
2008,04,12,03,57,5.90
2008,04,12,03,58,5.90
2008,04,12,03,59,6.00
2008,04,12,04,00,6.00
2008,04,12,04,01,6.10
2008,04,12,04,02,6.10
2008,04,12,04,03,6.20
2008,04,12,04,04,6.20
2008,04,12,04,05,6.20
2008,04,12,04,06,6.20
2008,04,12,04,07,6.20
2008,04,12,04,08,6.20
2008,04,12,04,09,6.20
2008,04,12,04,10,6.20
2008,04,12,04,11,6.20
2008,04,12,04,12,6.20
2008,04,12,04,13,6.30
2008,04,12,04,14,6.30
2008,04,12,04,15,6.30
2008,04,12,04,16,6.30
2008,04,12,04,17,6.20
2008,04,12,04,18,6.20
2008,04,12,04,19,6.20
2008,04,12,04,20,6.20
2008,04,12,04,21,6.20
2008,04,12,04,22,6.10
2008,04,12,04,23,6.10
2008,04,12,04,24,6.10
2008,04,12,04,25,6.10
2008,04,12,04,26,6.00
2008,04,12,04,27,6.00
2008,04,12,04,28,6.00
2008,04,12,04,29,6.00
2008,04,12,04,30,6.00
2008,04,12,04,31,6.10
2008,04,12,04,32,6.00
2008,04,12,04,33,6.00
2008,04,12,04,34,5.90
2008,04,12,04,35,5.90
2008,04,12,04,36,5.80
2008,04,12,04,37,5.80
2008,04,12,04,38,5.70
2008,04,12,04,39,5.70
2008,04,12,04,40,5.70
2008,04,12,04,41,5.70
2008,04,12,04,42,5.60
2008,04,12,04,43,5.60
2008,04,12,04,44,5.60
2008,04,12,04,45,5.60
2008,04,12,04,46,5.60
2008,04,12,04,47,5.60
2008,04,12,04,48,5.60
2008,04,12,04,49,5.60
2008,04,12,04,50,5.60
2008,04,12,04,51,5.70
2008,04,12,04,52,5.70
2008,04,12,04,53,5.80
2008,04,12,04,54,5.90
2008,04,12,04,55,5.90
2008,04,12,04,56,5.90
2008,04,12,04,57,5.90
2008,04,12,04,58,6.00
2008,04,12,04,59,6.10
2008,04,12,05,00,6.20
2008,04,12,05,01,6.20
2008,04,12,05,02,6.30
2008,04,12,05,03,6.30
2008,04,12,05,04,6.30
2008,04,12,05,05,6.40
2008,04,12,05,06,6.40
2008,04,12,05,07,6.40
2008,04,12,05,08,6.40
2008,04,12,05,09,6.40
2008,04,12,05,10,6.40
2008,04,12,05,11,6.50
2008,04,12,05,12,6.50
2008,04,12,05,13,6.50
2008,04,12,05,14,6.50
2008,04,12,05,15,6.40
2008,04,12,05,16,6.40
2008,04,12,05,17,6.40
2008,04,12,05,18,6.30
2008,04,12,05,19,6.30
2008,04,12,05,20,6.30
2008,04,12,05,21,6.30
2008,04,12,05,22,6.30
2008,04,12,05,23,6.30
2008,04,12,05,24,6.30
2008,04,12,05,25,6.30
2008,04,12,05,26,6.30
2008,04,12,05,27,6.30
2008,04,12,05,28,6.20
2008,04,12,05,29,6.20
2008,04,12,05,30,6.20
2008,04,12,05,31,6.10
2008,04,12,05,32,6.10
2008,04,12,05,33,6.10
2008,04,12,05,34,6.10
2008,04,12,05,35,6.10
2008,04,12,05,36,6.00
2008,04,12,05,37,6.00
2008,04,12,05,38,6.00
2008,04,12,05,39,6.10
2008,04,12,05,40,6.10
2008,04,12,05,41,6.10
2008,04,12,05,42,6.10
2008,04,12,05,43,6.10
2008,04,12,05,44,6.00
2008,04,12,05,45,5.90
2008,04,12,05,46,5.90
2008,04,12,05,47,5.80
2008,04,12,05,48,5.80
2008,04,12,05,49,5.70
2008,04,12,05,50,5.70
2008,04,12,05,51,5.60
2008,04,12,05,52,5.60
2008,04,12,05,53,5.50
2008,04,12,05,54,5.50
2008,04,12,05,55,5.40
2008,04,12,05,56,5.40
2008,04,12,05,57,5.40
2008,04,12,05,58,5.40
2008,04,12,05,59,5.40
2008,04,12,06,00,5.40
2008,04,12,06,01,5.40
2008,04,12,06,02,5.40
2008,04,12,06,03,5.40
2008,04,12,06,04,5.50
2008,04,12,06,05,5.50
2008,04,12,06,06,5.60
2008,04,12,06,07,5.60
2008,04,12,06,08,5.50
2008,04,12,06,09,5.50
2008,04,12,06,10,5.50
2008,04,12,06,11,5.40
2008,04,12,06,12,5.40
2008,04,12,06,13,5.40
2008,04,12,06,14,5.40
2008,04,12,06,15,5.30
2008,04,12,06,16,5.30
2008,04,12,06,17,5.30
2008,04,12,06,18,5.20
2008,04,12,06,19,5.20
2008,04,12,06,20,5.20
2008,04,12,06,21,5.20
2008,04,12,06,22,5.20
2008,04,12,06,23,5.20
2008,04,12,06,24,5.10
2008,04,12,06,25,5.10
2008,04,12,06,26,5.10
2008,04,12,06,27,5.10
2008,04,12,06,28,5.10
2008,04,12,06,29,5.10
2008,04,12,06,30,5.10
2008,04,12,06,31,5.10
2008,04,12,06,32,5.10
2008,04,12,06,33,5.10
2008,04,12,06,34,5.10
2008,04,12,06,35,5.10
2008,04,12,06,36,5.10
2008,04,12,06,37,5.10
2008,04,12,06,38,5.10
2008,04,12,06,39,5.10
2008,04,12,06,40,5.20
2008,04,12,06,41,5.20
2008,04,12,06,42,5.30
2008,04,12,06,43,5.30
2008,04,12,06,44,5.30
2008,04,12,06,45,5.40
2008,04,12,06,46,5.40
2008,04,12,06,47,5.50
2008,04,12,06,48,5.70
2008,04,12,06,49,5.90
2008,04,12,06,50,6.10
2008,04,12,06,51,6.20
2008,04,12,06,52,6.30
2008,04,12,06,53,6.30
2008,04,12,06,54,6.40
2008,04,12,06,55,6.40
2008,04,12,06,56,6.40
2008,04,12,06,57,6.40
2008,04,12,06,58,6.40
2008,04,12,06,59,6.40
2008,04,12,07,00,6.30
2008,04,12,07,01,6.30
2008,04,12,07,02,6.30
2008,04,12,07,03,6.30
2008,04,12,07,04,6.20
2008,04,12,07,05,6.20
2008,04,12,07,06,6.10
2008,04,12,07,07,6.10
2008,04,12,07,08,6.00
2008,04,12,07,09,6.00
2008,04,12,07,10,6.00
2008,04,12,07,11,5.90
2008,04,12,07,12,5.90
2008,04,12,07,13,5.90
2008,04,12,07,14,6.00
2008,04,12,07,15,6.00
2008,04,12,07,16,6.10
2008,04,12,07,17,6.10
2008,04,12,07,18,6.10
2008,04,12,07,19,6.10
2008,04,12,07,20,6.20
2008,04,12,07,21,6.20
2008,04,12,07,22,6.30
2008,04,12,07,23,6.30
2008,04,12,07,24,6.40
2008,04,12,07,25,6.40
2008,04,12,07,26,6.40
2008,04,12,07,27,6.40
2008,04,12,07,28,6.30
2008,04,12,07,29,6.30
2008,04,12,07,30,6.30
2008,04,12,07,31,6.30
2008,04,12,07,32,6.30
2008,04,12,07,33,6.20
2008,04,12,07,34,6.20
2008,04,12,07,35,6.20
2008,04,12,07,36,6.20
2008,04,12,07,37,6.10
2008,04,12,07,38,6.10
2008,04,12,07,39,6.10
2008,04,12,07,40,6.10
2008,04,12,07,41,6.10
2008,04,12,07,42,6.10
2008,04,12,07,43,6.10
2008,04,12,07,44,6.10
2008,04,12,07,45,6.10
2008,04,12,07,46,6.20
2008,04,12,07,47,6.20
2008,04,12,07,48,6.30
2008,04,12,07,49,6.30
2008,04,12,07,50,6.40
2008,04,12,07,51,6.50
2008,04,12,07,52,6.60
2008,04,12,07,53,6.60
2008,04,12,07,54,6.60
2008,04,12,07,55,6.60
2008,04,12,07,56,6.60
2008,04,12,07,57,6.60
2008,04,12,07,58,6.60
2008,04,12,07,59,6.70
2008,04,12,08,00,6.80
2008,04,12,08,01,6.80
2008,04,12,08,02,6.90
2008,04,12,08,03,7.00
2008,04,12,08,04,7.10
2008,04,12,08,05,7.20
2008,04,12,08,06,7.20
2008,04,12,08,07,7.40
2008,04,12,08,08,7.50
2008,04,12,08,09,7.60
2008,04,12,08,10,7.60
2008,04,12,08,11,7.70
2008,04,12,08,12,7.80
2008,04,12,08,13,7.80
2008,04,12,08,14,7.90
2008,04,12,08,15,7.90
2008,04,12,08,16,8.00
2008,04,12,08,17,8.10
2008,04,12,08,18,8.10
2008,04,12,08,19,8.20
2008,04,12,08,20,8.30
2008,04,12,08,21,8.30
2008,04,12,08,22,8.40
2008,04,12,08,23,8.50
2008,04,12,08,24,8.60
2008,04,12,08,25,8.70
2008,04,12,08,26,8.70
2008,04,12,08,27,8.70
2008,04,12,08,28,8.80
2008,04,12,08,29,8.80
2008,04,12,08,30,8.90
2008,04,12,08,31,9.00
2008,04,12,08,32,9.00
2008,04,12,08,33,9.20
2008,04,12,08,34,9.20
2008,04,12,08,35,9.30
2008,04,12,08,36,9.30
2008,04,12,08,37,9.40
2008,04,12,08,38,9.50
2008,04,12,08,39,9.60
2008,04,12,08,40,9.70
2008,04,12,08,41,9.70
2008,04,12,08,42,9.80
2008,04,12,08,43,9.90
2008,04,12,08,44,10.00
2008,04,12,08,45,10.10
2008,04,12,08,46,10.20
2008,04,12,08,47,10.20
2008,04,12,08,48,10.20
2008,04,12,08,49,10.30
2008,04,12,08,50,10.40
2008,04,12,08,51,10.50
2008,04,12,08,52,10.60
2008,04,12,08,53,10.70
2008,04,12,08,54,10.70
2008,04,12,08,55,10.80
2008,04,12,08,56,10.90
2008,04,12,08,57,10.90
2008,04,12,08,58,11.00
2008,04,12,08,59,11.00
2008,04,12,09,00,11.10
2008,04,12,09,01,11.10
2008,04,12,09,02,11.10
2008,04,12,09,03,11.10
2008,04,12,09,04,11.10
2008,04,12,09,05,11.10
2008,04,12,09,06,11.10
2008,04,12,09,07,11.20
2008,04,12,09,08,11.20
2008,04,12,09,09,11.20
2008,04,12,09,10,11.30
2008,04,12,09,11,11.30
2008,04,12,09,12,11.40
2008,04,12,09,13,11.50
2008,04,12,09,14,11.50
2008,04,12,09,15,11.60
2008,04,12,09,16,11.70
2008,04,12,09,17,11.70
2008,04,12,09,18,11.80
2008,04,12,09,19,11.90
2008,04,12,09,20,11.90
2008,04,12,09,21,11.90
2008,04,12,09,22,12.00
2008,04,12,09,23,12.00
2008,04,12,09,24,12.00
2008,04,12,09,25,11.90
2008,04,12,09,26,11.90
2008,04,12,09,27,11.90
2008,04,12,09,28,11.90
2008,04,12,09,29,11.90
2008,04,12,09,30,11.90
2008,04,12,09,31,11.90
2008,04,12,09,32,11.90
2008,04,12,09,33,11.90
2008,04,12,09,34,11.90
2008,04,12,09,35,11.90
2008,04,12,09,36,11.90
2008,04,12,09,37,12.00
2008,04,12,09,38,12.00
2008,04,12,09,39,12.00
2008,04,12,09,40,12.00
2008,04,12,09,41,11.90
2008,04,12,09,42,11.90
2008,04,12,09,43,11.90
2008,04,12,09,44,11.90
2008,04,12,09,45,11.90
2008,04,12,09,46,11.90
2008,04,12,09,47,11.90
2008,04,12,09,48,11.90
2008,04,12,09,49,11.90
2008,04,12,09,50,11.90
2008,04,12,09,51,11.90
2008,04,12,09,52,12.00
2008,04,12,09,53,12.00
2008,04,12,09,54,12.10
2008,04,12,09,55,12.10
2008,04,12,09,56,12.10
2008,04,12,09,57,12.10
2008,04,12,09,58,12.20
2008,04,12,09,59,12.20
2008,04,12,10,00,12.30
2008,04,12,10,01,12.30
2008,04,12,10,02,12.30
2008,04,12,10,03,12.30
2008,04,12,10,04,12.30
2008,04,12,10,05,12.30
2008,04,12,10,06,12.30
2008,04,12,10,07,12.40
2008,04,12,10,08,12.40
2008,04,12,10,09,12.50
2008,04,12,10,10,12.50
2008,04,12,10,11,12.60
2008,04,12,10,12,12.60
2008,04,12,10,13,12.60
2008,04,12,10,14,12.60
2008,04,12,10,15,12.60
2008,04,12,10,16,12.60
2008,04,12,10,17,12.60
2008,04,12,10,18,12.60
2008,04,12,10,19,12.60
2008,04,12,10,20,12.60
2008,04,12,10,21,12.60
2008,04,12,10,22,12.70
2008,04,12,10,23,12.70
2008,04,12,10,24,12.70
2008,04,12,10,25,12.80
2008,04,12,10,26,12.80
2008,04,12,10,27,12.90
2008,04,12,10,28,12.90
2008,04,12,10,29,13.00
2008,04,12,10,30,13.00
2008,04,12,10,31,13.00
2008,04,12,10,32,13.00
2008,04,12,10,33,13.10
2008,04,12,10,34,13.10
2008,04,12,10,35,13.10
2008,04,12,10,36,13.20
2008,04,12,10,37,13.30
2008,04,12,10,38,13.30
2008,04,12,10,39,13.40
2008,04,12,10,40,13.40
2008,04,12,10,41,13.40
2008,04,12,10,42,13.50
2008,04,12,10,43,13.60
2008,04,12,10,44,13.70
2008,04,12,10,45,13.70
2008,04,12,10,46,13.80
2008,04,12,10,47,13.80
2008,04,12,10,48,13.70
2008,04,12,10,49,13.70
2008,04,12,10,50,13.70
2008,04,12,10,51,13.70
2008,04,12,10,52,13.70
2008,04,12,10,53,13.70
2008,04,12,10,54,13.70
2008,04,12,10,55,13.70
2008,04,12,10,56,13.80
2008,04,12,10,57,13.80
2008,04,12,10,58,13.90
2008,04,12,10,59,13.90
2008,04,12,11,00,14.00
2008,04,12,11,01,14.00
2008,04,12,11,02,14.10
2008,04,12,11,03,14.10
2008,04,12,11,04,14.10
2008,04,12,11,05,14.20
2008,04,12,11,06,14.20
2008,04,12,11,07,14.30
2008,04,12,11,08,14.30
2008,04,12,11,09,14.30
2008,04,12,11,10,14.30
2008,04,12,11,11,14.30
2008,04,12,11,12,14.30
2008,04,12,11,13,14.30
2008,04,12,11,14,14.40
2008,04,12,11,15,14.40
2008,04,12,11,16,14.50
2008,04,12,11,17,14.60
2008,04,12,11,18,14.60
2008,04,12,11,19,14.60
2008,04,12,11,20,14.60
2008,04,12,11,21,14.60
2008,04,12,11,22,14.60
2008,04,12,11,23,14.60
2008,04,12,11,24,14.70
2008,04,12,11,25,14.80
2008,04,12,11,26,15.00
2008,04,12,11,27,15.00
2008,04,12,11,28,15.00
2008,04,12,11,29,15.00
2008,04,12,11,30,15.00
2008,04,12,11,31,15.10
2008,04,12,11,32,15.20
2008,04,12,11,33,15.30
2008,04,12,11,34,15.30
2008,04,12,11,35,15.20
2008,04,12,11,36,15.10
2008,04,12,11,37,15.00
2008,04,12,11,38,15.00
2008,04,12,11,39,15.00
2008,04,12,11,40,15.00
2008,04,12,11,41,15.00
2008,04,12,11,42,15.00
2008,04,12,11,43,14.90
2008,04,12,11,44,14.80
2008,04,12,11,45,14.80
2008,04,12,11,46,14.80
2008,04,12,11,47,14.80
2008,04,12,11,48,14.90
2008,04,12,11,49,15.00
2008,04,12,11,50,15.00
2008,04,12,11,51,15.00
2008,04,12,11,52,15.00
2008,04,12,11,53,15.00
2008,04,12,11,54,15.10
2008,04,12,11,55,15.00
2008,04,12,11,56,15.00
2008,04,12,11,57,15.00
2008,04,12,11,58,15.00
2008,04,12,11,59,15.00
2008,04,12,12,00,15.00
2008,04,12,12,01,15.10
2008,04,12,12,02,15.10
2008,04,12,12,03,15.20
2008,04,12,12,04,15.30
2008,04,12,12,05,15.40
2008,04,12,12,06,15.60
2008,04,12,12,07,15.60
2008,04,12,12,08,15.50
2008,04,12,12,09,15.40
2008,04,12,12,10,15.40
2008,04,12,12,11,15.30
2008,04,12,12,12,15.30
2008,04,12,12,13,15.30
2008,04,12,12,14,15.30
2008,04,12,12,15,15.30
2008,04,12,12,16,15.30
2008,04,12,12,17,15.30
2008,04,12,12,18,15.40
2008,04,12,12,19,15.40
2008,04,12,12,20,15.50
2008,04,12,12,21,15.60
2008,04,12,12,22,15.60
2008,04,12,12,23,15.70
2008,04,12,12,24,15.70
2008,04,12,12,25,15.70
2008,04,12,12,26,15.60
2008,04,12,12,27,15.60
2008,04,12,12,28,15.60
2008,04,12,12,29,15.60
2008,04,12,12,30,15.70
2008,04,12,12,31,15.80
2008,04,12,12,32,15.80
2008,04,12,12,33,15.80
2008,04,12,12,34,15.80
2008,04,12,12,35,15.70
2008,04,12,12,36,15.70
2008,04,12,12,37,15.70
2008,04,12,12,38,15.70
2008,04,12,12,39,15.70
2008,04,12,12,40,15.80
2008,04,12,12,41,15.80
2008,04,12,12,42,15.90
2008,04,12,12,43,16.00
2008,04,12,12,44,16.00
2008,04,12,12,45,16.10
2008,04,12,12,46,16.10
2008,04,12,12,47,16.10
2008,04,12,12,48,16.00
2008,04,12,12,49,16.00
2008,04,12,12,50,15.90
2008,04,12,12,51,16.00
2008,04,12,12,52,16.10
2008,04,12,12,53,16.10
2008,04,12,12,54,16.20
2008,04,12,12,55,16.20
2008,04,12,12,56,16.20
2008,04,12,12,57,16.20
2008,04,12,12,58,16.10
2008,04,12,12,59,16.00
2008,04,12,13,00,16.00
2008,04,12,13,01,16.00
2008,04,12,13,02,16.00
2008,04,12,13,03,16.00
2008,04,12,13,04,16.10
2008,04,12,13,05,16.10
2008,04,12,13,06,16.10
2008,04,12,13,07,16.10
2008,04,12,13,08,16.10
2008,04,12,13,09,16.10
2008,04,12,13,10,16.10
2008,04,12,13,11,16.10
2008,04,12,13,12,16.10
2008,04,12,13,13,16.00
2008,04,12,13,14,15.90
2008,04,12,13,15,15.90
2008,04,12,13,16,15.90
2008,04,12,13,17,15.90
2008,04,12,13,18,15.90
2008,04,12,13,19,16.00
2008,04,12,13,20,16.10
2008,04,12,13,21,16.20
2008,04,12,13,22,16.20
2008,04,12,13,23,16.30
2008,04,12,13,24,16.30
2008,04,12,13,25,16.30
2008,04,12,13,26,16.30
2008,04,12,13,27,16.30
2008,04,12,13,28,16.20
2008,04,12,13,29,16.20
2008,04,12,13,30,16.20
2008,04,12,13,31,16.20
2008,04,12,13,32,16.10
2008,04,12,13,33,16.10
2008,04,12,13,34,16.10
2008,04,12,13,35,16.20
2008,04,12,13,36,16.20
2008,04,12,13,37,16.20
2008,04,12,13,38,16.20
2008,04,12,13,39,16.10
2008,04,12,13,40,16.10
2008,04,12,13,41,16.20
2008,04,12,13,42,16.20
2008,04,12,13,43,16.20
2008,04,12,13,44,16.20
2008,04,12,13,45,16.10
2008,04,12,13,46,16.10
2008,04,12,13,47,16.10
2008,04,12,13,48,16.20
2008,04,12,13,49,16.30
2008,04,12,13,50,16.30
2008,04,12,13,51,16.40
2008,04,12,13,52,16.40
2008,04,12,13,53,16.50
2008,04,12,13,54,16.50
2008,04,12,13,55,16.60
2008,04,12,13,56,16.70
2008,04,12,13,57,16.80
2008,04,12,13,58,16.80
2008,04,12,13,59,16.70
2008,04,12,14,00,16.70
2008,04,12,14,01,16.70
2008,04,12,14,02,16.80
2008,04,12,14,03,16.80
2008,04,12,14,04,16.70
2008,04,12,14,05,16.70
2008,04,12,14,06,16.70
2008,04,12,14,07,16.70
2008,04,12,14,08,16.80
2008,04,12,14,09,16.90
2008,04,12,14,10,16.90
2008,04,12,14,11,17.00
2008,04,12,14,12,17.10
2008,04,12,14,13,17.20
2008,04,12,14,14,17.20
2008,04,12,14,15,17.20
2008,04,12,14,16,17.10
2008,04,12,14,17,17.10
2008,04,12,14,18,17.20
2008,04,12,14,19,17.20
2008,04,12,14,20,17.20
2008,04,12,14,21,17.30
2008,04,12,14,22,17.30
2008,04,12,14,23,17.40
2008,04,12,14,24,17.50
2008,04,12,14,25,17.50
2008,04,12,14,26,17.50
2008,04,12,14,27,17.40
2008,04,12,14,28,17.30
2008,04,12,14,29,17.30
2008,04,12,14,30,17.20
2008,04,12,14,31,17.20
2008,04,12,14,32,17.10
2008,04,12,14,33,17.10
2008,04,12,14,34,17.10
2008,04,12,14,35,17.10
2008,04,12,14,36,17.20
2008,04,12,14,37,17.30
2008,04,12,14,38,17.40
2008,04,12,14,39,17.50
2008,04,12,14,40,17.50
2008,04,12,14,41,17.50
2008,04,12,14,42,17.40
2008,04,12,14,43,17.40
2008,04,12,14,44,17.40
2008,04,12,14,45,17.50
2008,04,12,14,46,17.60
2008,04,12,14,47,17.70
2008,04,12,14,48,17.70
2008,04,12,14,49,17.70
2008,04,12,14,50,17.60
2008,04,12,14,51,17.60
2008,04,12,14,52,17.60
2008,04,12,14,53,17.60
2008,04,12,14,54,17.70
2008,04,12,14,55,17.80
2008,04,12,14,56,17.90
2008,04,12,14,57,17.90
2008,04,12,14,58,17.90
2008,04,12,14,59,17.80
2008,04,12,15,00,17.80
2008,04,12,15,01,17.90
2008,04,12,15,02,18.00
2008,04,12,15,03,18.00
2008,04,12,15,04,18.00
2008,04,12,15,05,18.10
2008,04,12,15,06,18.10
2008,04,12,15,07,18.20
2008,04,12,15,08,18.30
2008,04,12,15,09,18.30
2008,04,12,15,10,18.30
2008,04,12,15,11,18.30
2008,04,12,15,12,18.40
2008,04,12,15,13,18.40
2008,04,12,15,14,18.40
2008,04,12,15,15,18.40
2008,04,12,15,16,18.30
2008,04,12,15,17,18.30
2008,04,12,15,18,18.30
2008,04,12,15,19,18.30
2008,04,12,15,20,18.40
2008,04,12,15,21,18.40
2008,04,12,15,22,18.40
2008,04,12,15,23,18.50
2008,04,12,15,24,18.40
2008,04,12,15,25,18.40
2008,04,12,15,26,18.40
2008,04,12,15,27,18.30
2008,04,12,15,28,18.30
2008,04,12,15,29,18.30
2008,04,12,15,30,18.30
2008,04,12,15,31,18.30
2008,04,12,15,32,18.30
2008,04,12,15,33,18.40
2008,04,12,15,34,18.60
2008,04,12,15,35,18.70
2008,04,12,15,36,18.80
2008,04,12,15,37,18.70
2008,04,12,15,38,18.70
2008,04,12,15,39,18.80
2008,04,12,15,40,18.80
2008,04,12,15,41,18.80
2008,04,12,15,42,18.80
2008,04,12,15,43,18.80
2008,04,12,15,44,18.80
2008,04,12,15,45,18.90
2008,04,12,15,46,19.00
2008,04,12,15,47,19.10
2008,04,12,15,48,19.30
2008,04,12,15,49,19.40
2008,04,12,15,50,19.60
2008,04,12,15,51,19.60
2008,04,12,15,52,19.70
2008,04,12,15,53,19.70
2008,04,12,15,54,19.70
2008,04,12,15,55,19.60
2008,04,12,15,56,19.40
2008,04,12,15,57,19.20
2008,04,12,15,58,19.10
2008,04,12,15,59,18.90
2008,04,12,16,00,18.90
2008,04,12,16,01,18.90
2008,04,12,16,02,18.90
2008,04,12,16,03,19.00
2008,04,12,16,04,19.00
2008,04,12,16,05,19.10
2008,04,12,16,06,19.20
2008,04,12,16,07,19.30
2008,04,12,16,08,19.30
2008,04,12,16,09,19.30
2008,04,12,16,10,19.40
2008,04,12,16,11,19.30
2008,04,12,16,12,19.20
2008,04,12,16,13,19.00
2008,04,12,16,14,18.90
2008,04,12,16,15,18.80
2008,04,12,16,16,18.70
2008,04,12,16,17,18.50
2008,04,12,16,18,18.40
2008,04,12,16,19,18.40
2008,04,12,16,20,18.50
2008,04,12,16,21,18.60
2008,04,12,16,22,18.70
2008,04,12,16,23,18.60
2008,04,12,16,24,18.60
2008,04,12,16,25,18.70
2008,04,12,16,26,18.60
2008,04,12,16,27,18.40
2008,04,12,16,28,18.20
2008,04,12,16,29,17.80
2008,04,12,16,30,17.60
2008,04,12,16,31,17.60
2008,04,12,16,32,17.70
2008,04,12,16,33,17.80
2008,04,12,16,34,17.80
2008,04,12,16,35,17.90
2008,04,12,16,36,17.80
2008,04,12,16,37,17.90
2008,04,12,16,38,18.00
2008,04,12,16,39,18.10
2008,04,12,16,40,18.20
2008,04,12,16,41,18.20
2008,04,12,16,42,18.20
2008,04,12,16,43,18.00
2008,04,12,16,44,17.90
2008,04,12,16,45,17.80
2008,04,12,16,46,17.60
2008,04,12,16,47,17.50
2008,04,12,16,48,17.30
2008,04,12,16,49,17.20
2008,04,12,16,50,17.10
2008,04,12,16,51,17.10
2008,04,12,16,52,17.10
2008,04,12,16,53,17.20
2008,04,12,16,54,17.20
2008,04,12,16,55,17.20
2008,04,12,16,56,17.20
2008,04,12,16,57,17.30
2008,04,12,16,58,17.40
2008,04,12,16,59,17.50
2008,04,12,17,00,17.50
2008,04,12,17,01,17.60
2008,04,12,17,02,17.60
2008,04,12,17,03,17.60
2008,04,12,17,04,17.50
2008,04,12,17,05,17.40
2008,04,12,17,06,17.30
2008,04,12,17,07,17.40
2008,04,12,17,08,17.40
2008,04,12,17,09,17.50
2008,04,12,17,10,17.50
2008,04,12,17,11,17.50
2008,04,12,17,12,17.40
2008,04,12,17,13,17.40
2008,04,12,17,14,17.50
2008,04,12,17,15,17.50
2008,04,12,17,16,17.60
2008,04,12,17,17,17.60
2008,04,12,17,18,17.70
2008,04,12,17,19,17.70
2008,04,12,17,20,17.70
2008,04,12,17,21,17.70
2008,04,12,17,22,17.70
2008,04,12,17,23,17.70
2008,04,12,17,24,17.70
2008,04,12,17,25,17.80
2008,04,12,17,26,17.90
2008,04,12,17,27,18.00
2008,04,12,17,28,18.00
2008,04,12,17,29,17.90
2008,04,12,17,30,17.90
2008,04,12,17,31,17.90
2008,04,12,17,32,17.90
2008,04,12,17,33,17.90
2008,04,12,17,34,17.90
2008,04,12,17,35,17.90
2008,04,12,17,36,17.90
2008,04,12,17,37,17.90
2008,04,12,17,38,18.00
2008,04,12,17,39,18.10
2008,04,12,17,40,18.10
2008,04,12,17,41,18.10
2008,04,12,17,42,18.20
2008,04,12,17,43,18.20
2008,04,12,17,44,18.20
2008,04,12,17,45,18.20
2008,04,12,17,46,18.10
2008,04,12,17,47,18.10
2008,04,12,17,48,18.00
2008,04,12,17,49,18.00
2008,04,12,17,50,18.00
2008,04,12,17,51,18.00
2008,04,12,17,52,18.00
2008,04,12,17,53,18.10
2008,04,12,17,54,18.20
2008,04,12,17,55,18.30
2008,04,12,17,56,18.30
2008,04,12,17,57,18.50
2008,04,12,17,58,18.50
2008,04,12,17,59,18.50
2008,04,12,18,00,18.60
2008,04,12,18,01,18.50
2008,04,12,18,02,18.60
2008,04,12,18,03,18.50
2008,04,12,18,04,18.40
2008,04,12,18,05,18.30
2008,04,12,18,06,18.10
2008,04,12,18,07,18.00
2008,04,12,18,08,17.90
2008,04,12,18,09,17.70
2008,04,12,18,10,17.60
2008,04,12,18,11,17.50
2008,04,12,18,12,17.40
2008,04,12,18,13,17.40
2008,04,12,18,14,17.30
2008,04,12,18,15,17.20
2008,04,12,18,16,17.20
2008,04,12,18,17,17.10
2008,04,12,18,18,17.00
2008,04,12,18,19,16.90
2008,04,12,18,20,16.90
2008,04,12,18,21,16.80
2008,04,12,18,22,16.70
2008,04,12,18,23,16.60
2008,04,12,18,24,16.50
2008,04,12,18,25,16.40
2008,04,12,18,26,16.30
2008,04,12,18,27,16.30
2008,04,12,18,28,16.20
2008,04,12,18,29,16.20